Regional Weather Roundup
Issued by NWS

Home | Current Version | Previous Version | Text Only | Print | Product List | Glossary On
Versions: 1 2 3 4 5 6 7 8 9 10 11 12 13 14 15 16 17 18 19 20 21 22 23 24 25 26 27 28 29 30 31 32 33 34 35 36 37 38 39 40 41 42 43 44 45 46 47 48 49 50
000
ASUS43 KDMX 200501
RWRIA

WEATHER ROUNDUP FOR IOWA
NATIONAL WEATHER SERVICE DES MOINES IA
1200 AM CDT SUN AUG 20 2017

NOTE: "FAIR" INDICATES FEW OR NO CLOUDS BELOW 12,000 FEET WITH NO
SIGNIFICANT WEATHER AND/OR OBSTRUCTIONS TO VISIBILITY.

* - THESE STATIONS ARE NOT NWS STATIONS...THUS NOT UNDER NWS
QUALITY CONTROL.  THEY ALSO DO NOT REPORT WEATHER SUCH
AS PRECIPITATION OR FOG.

IAZ001>003-012>014-020>022-031>034-043>046-200600-
   NORTHWEST IOWA

CITY           SKY/WX    TMP DP  RH WIND       PRES   REMARKS
CARROLL *      CLOUDY    68  66  94 S6        29.92S
CHEROKEE *     LGT RAIN  70  67  88 S12       29.92S
DENISON *      CLOUDY    72  64  78 CALM      29.92R
LE MARS *      CLOUDY   100 N/A N/A E20       29.89F
ORANGE CITY *  CLOUDY    73  64  73 S20G33    29.85F
SHELDON *      CLOUDY    70  66  88 SE9       29.86F
SIOUX CITY     CLOUDY    73  66  78 SE7       29.90R
SPENCER        CLOUDY    68  64  87 W3        29.92R
STORM LAKE *   CLOUDY    68  64  88 S12       29.95R
$$

IAZ055>058-069>071-079>083-090>094-200600-
   SOUTHWEST IOWA

CITY           SKY/WX    TMP DP  RH WIND       PRES   REMARKS
ATLANTIC *     CLOUDY    72  63  73 CALM      29.90S
AUDUBON *      CLOUDY    66  63  88 CALM      29.93S
CLARINDA *       N/A     66  64  94 CALM      29.92F
COUNCIL BLFS * CLOUDY    73  64  73 SE16      29.85F
CRESTON *      CLOUDY    70  61  73 S7        29.94S
HARLAN  *      CLOUDY    72  63  73 SE6       29.92S
LAMONI         CLOUDY    74  58  57 S6        29.94S
RED OAK *      CLOUDY    72  63  73 CALM      29.89F
SHENANDOAH *   CLOUDY    73  66  78 SE8       29.89S
$$

IAZ047>049-059>061-072>074-084-200600-
   CENTRAL IOWA

CITY           SKY/WX    TMP DP  RH WIND       PRES   REMARKS
AMES           MOCLDY    66  66 100 SE5       29.93F
ANKENY *       MOCLDY    68  64  88 CALM      29.94R
BOONE *        CLOUDY    70  66  88 SE8       29.92F
CHARITON *     CLOUDY    68  61  77 S6        29.94S
DES MOINES     CLOUDY    75  66  73 E5        29.93R
GRINNELL*      PTCLDY    67  63  86 E3        29.96S
KNOXVILLE *    CLEAR     70  64  83 SE5       29.92S
MARSHALLTOWN   PTCLDY    66  64  93 E7        29.94S
NEWTON *       PTCLDY    68  64  88 E5        29.94F
PELLA *        CLEAR     68  64  84 SE5       29.94F
PERRY *          N/A     67  65  91 SE7       29.93S
$$

IAZ004>006-015-016-023>025-035-036-200600-
   NORTH CENTRAL IOWA

CITY           SKY/WX    TMP DP  RH WIND       PRES   REMARKS
ALGONA *       CLOUDY    70  66  88 SE8       29.91F
CLARION *      CLOUDY    68  68 100 SE9       29.93F
ESTHERVILLE    CLOUDY    66  66 100 S7        29.89F
FORT DODGE *   CLOUDY    72  64  78 SE5       29.93R
MASON CITY     MOCLDY    65  63  93 S7        29.96S
FOREST CITY *    N/A     64  64 100 SE6       29.93F
WEBSTER CITY *   N/A     70  66  88 SE5       29.90F
IOWA FALLS *     N/A     68  65  90 SE6       29.95F
$$

IAZ007>011-017>019-026>030-037>042-050>054-066-200600-
   NORTHEAST IOWA

CITY           SKY/WX    TMP DP  RH WIND       PRES   REMARKS
CEDAR RAPIDS   CLEAR     64  62  93 SE3       29.96R
CHARLES CITY * MOCLDY    66  64  94 SE6       29.96S
CLINTON *      CLEAR     63  61  93 E3        29.98R
DECORAH *      PTCLDY    64  63  94 S5        29.96R
DUBUQUE        CLEAR     64  59  83 CALM      29.98S
MONTICELLO *   CLEAR     61  59  94 CALM      29.96S
OELWEIN *      CLEAR     63  63 100 SE7       29.97S
WATERLOO       MOCLDY    64  61  90 CALM      29.95R
$$

IAZ064-065-067-068-078-200600-
   EAST CENTRAL IOWA

CITY           SKY/WX    TMP DP  RH WIND       PRES   REMARKS
DAVENPORT      CLEAR     62  60  93 E3        29.99R
IOWA CITY      CLEAR     69  64  84 SE3       29.97S
MUSCATINE *    CLEAR     66  63  88 CALM      29.96S
QUAD CITIES    CLEAR     64  61  90 CALM      29.97R
$$

IAZ062-063-075>077-085>089-095>099-200600-
   SOUTHEAST IOWA

CITY           SKY/WX    TMP DP  RH WIND       PRES   REMARKS
BURLINGTON     CLEAR     71  65  81 SE3       29.96R
FAIRFIELD *    CLEAR     66  63  88 SE6       29.95S
FORT MADISON * CLEAR     72  66  83 SE3       29.97R
KEOKUK *       CLEAR     73  68  83 SE7       29.95S
OTTUMWA        CLEAR     66  65  96 SE7       29.94S
WASHINGTON *   CLEAR     64  64 100 E5        29.97S
$$

ABBREVIATIONS USED IN REMARKS
   TC - TEMPERATURES IN CELSIUS
  WCI - WIND CHILL INDEX
   HX - HEAT INDEX
  VSB - VISIBILITY
$$




USA.gov is the U.S. government's official web portal to all federal, state and local government web resources and services.